If you wish to contribute or participate in the discussions about articles you are invited to join SKYbrary as a registered user

 Actions

Baden Airpark

From SKYbrary Wiki

EDSB
Airport
ICAO: EDSB – IATA: FKB
Summary
Name Baden Airpark
Region Europe
Territory Germany DE.gif
Location Rheinmünster, Baden-Wurttemberg
Serving Baden Baden and Karlsruhe
Elevation 124.358 m
408 ft
408 ft124.358 m
Type large airport
Coordinates 48° 46' 40.80" N, 8° 5' 16.01" E
Runways
Designator Length Width Surface ROPS
3/21 2983 m9,786.745 ft
45 m147.638 ft
ASP yes/yes


METAR
Observation EDSB 181620Z 20008KT CAVOK 14/13 Q1012
Station Karlsruhe, Baden Wurttemberg
Date/Time 18 October 2019 16:20:00
Wind direction 200°
Wind speed 08 kts
Lowest cloud amount clouds and visibility OK
Temperature 14°C
Dew point 13°C
Humidity 93%
QNH 1012 hPa
Weather condition n/a

Baden Airpark

ICAO: EDSB IATA: FKB

Description

International airport serving Baden-Baden and Karlsruhe, Germany.

Climatology

Temperate Marine climate/Oceanic climate (Köppen climate classification Cfb) - Moderately cool summer and comparatively warm winter.

Maps

Terrain

Loading map...

Airport Layout

Loading map...


Accidents & Serious Incidents at or in vicinity of EDSB

None on SKYbrary